星链-3725 (STARLINK-3725 )

导读

STARLINK-3725是美国SpaceX公司星链星座中的一员,于2022年3月19日发射升空,运行在近地轨道。星链项目旨在构建全球卫星互联网,为基础设施匮乏地区提供高速宽带服务,这颗卫星加入后,进一步扩充了星链星座规模,助力实现全球覆盖、低延迟的网络接入目标,目前星链已成为全球最大低轨卫星群。

Basic Information
目录编号:
52123
目录名称:
STARLINK-3725
国际标识:
2022-029AM
轨道中心:
EARTH
卫星名称:
星链-3725
卫星全名:
星链-3725 (STARLINK-3725 )
卫星状态:
在轨 (已飞行1630 天)
发射日期:
2022-03-19 UTC
国别 :
美国 (US)
星等 :
--
Orbit Information
数据来源 国际轨道数据
星历时间: 2026-09-04T16:00:02+0800
9小时前
查看轨道信息
半长轴: 6860.7km
偏心率: 0.0001527
轨道倾角: 53.159°
近地点辐角 73.714°
升交点赤经 344.968°
平近点角 354.869°
近地点: 481.515km
远地点: 483.611km
周期: 94.257分钟
每日圈数: 15.277426
Detailed Information
固有亮度:
5
最大亮度:
2.5
卫星平台:
Starlink v1.5
覆盖范围:
全球
运营商:
太空探索技术公司
运营商所在国:
美国
制造商(研发单位):
太空探索技术公司
制造商所在国:
美国
使用方式:
暂无
Satellite Introduction
星链(Starlink)计划是由太空探索技术公司(SpaceX)提出的一个巨型低轨卫星互联网星座项目,计划在2019年至2024年间在太空搭建由约1.2万颗卫星组成的“星链”网络,其中1584颗将部署在地球上空550千米处的近地轨道,并从2020年开始工作。该卫星仍在工作。
2D Orbit Map
3D Orbit Map
Orbit Altitude Analysis Chart
Orbit Inclination Analysis Chart
Orbit Comprehensive Analysis Chart
View Comprehensive Chart
Conjunction Data List
Event ID Objects TCA Miss Dist (km) Collision Risk Probability Collision Risk Index (CRI) Action
CDM_260905-225405-212305-809221
2026-09-05T
22:54:05+0000
0.268 km
中距离
5.260584E-4 高风险 0.89
CDM_260905-115505-212305-760921
2026-09-05T
11:55:17+0000
0.354 km
远距离
3.487994E-4 高风险 0.86
CDM_260905-203305-212305-760921
2026-09-05T
20:33:15+0000
0.530 km
远距离
1.515494E-4 高风险 0.79
CDM_260906-113205-212306-340221
2026-09-06T
11:32:41+0000
0.751 km
远距离
5.769536E-5 中风险 0.7
CDM_260904-174005-212306-646521
2026-09-04T
17:40:59+0000
0.571 km
远距离
5.028291E-5 中风险 0.69
CDM_260904-160405-212306-358221
2026-09-04T
16:04:54+0000
0.775 km
远距离
2.875165E-5 中风险 0.64
CDM_260906-214405-212306-340221
2026-09-06T
21:44:49+0000
1.050 km
极远距离
1.896855E-5 中风险 0.61
CDM_260905-080505-212306-681121
2026-09-05T
08:05:38+0000
1.307 km
极远距离
8.797131E-6 低风险 0.54
CDM_260906-090605-212305-809221
2026-09-06T
09:06:14+0000
1.422 km
极远距离
6.620611E-6 低风险 0.51
CDM_260905-233205-212305-725821
2026-09-05T
23:32:39+0000
1.389 km
极远距离
6.160129E-6 低风险 0.51